ATLAS 5 CENTAUR R/B - Orbit

View from above orbital plane
View from above orbital plane
View from above satellite
View from above satellite

Ground track
Ground track

The orbit data is extracted from the following two-line orbital elements,

1 31702U 07027B   13156.92251316 -.00000400  00000-0 -18521-3 0    03
2 31702  63.3729 187.0211 0102000 339.9004  20.0996 14.17919272    05
Epoch (UTC): 05 June 2013 22:08:25
Eccentricity: 0.0102000
inclination: 63.3729°
perigee height: 759 km
apogee height: 906 km
right ascension of ascending node: 187.0211°
argument of perigee: 339.9004°
revolutions per day: 14.17919272
mean anomaly at epoch: 20.0996°
orbit number at epoch: 0

The dashed part of the orbit path shows where the satellite is in the earth's shadow,  

Developed and maintained by Chris Peat, Heavens-Above GmbH. Please read the updated FAQ before sending e-mail. Imprint. DLR